Hurghada, Egypt

10:56 AM EET on March 26, 2017 (GMT +0200)
Hurghada International

Weather History for HEGN - December, 2012

Change the Weather History Date:

Thursday, December 13, 2012

  Actual Average Record
Temperature  
Mean Temperature 64 °F -  
Max Temperature 73 °F 70 °F 80 °F (2007)
Min Temperature 56 °F 53 °F 46 °F (2013)
Growing Degree Days 14 (Base 50)    
Moisture  
Dew Point 45 °F    
Average Humidity 50    
Maximum Humidity 67    
Minimum Humidity 27    
Precipitation  
Precipitation 0.00 in - - ()
Sea Level Pressure  
Sea Level Pressure 30.05 in    
Wind  
Wind Speed 15 mph ()    
Max Wind Speed 24 mph    
Max Gust Speed -    
Visibility 4.8 miles    
Events      
Averages and records for this station are not official NWS values.
T = Trace of Precipitation, MM = Missing Value Source: Averaged Metar Reports

Daily Weather History Graph

Daily Weather History Graph

Search for Another Location

Airport or City:

Trip Planner

Search our weather history database for the weather conditions in past years. The results will help you decide how hot, cold, wet, or windy it might be!

Date:

Astronomy

Dec. 13, 2012 Rise Set
Actual Time 6:25 AM EET 4:52 PM EET
Civil Twilight 6:00 AM EET 5:18 PM EET
Nautical Twilight 5:31 AM EET 5:47 PM EET
Astronomical Twilight 5:02 AM EET 6:15 PM EET
Moon 6:14 AM EET (12/13) 5:10 PM EET (12/13)
Length of Visible Light 11h 18m
Length of Day
10h 27m
New Moon, 0% of the Moon is Illuminated
Dec 13
New Moon
Dec 20
First Quarter
Dec 28
Full
Jan 5
Last Quarter
Jan 11
New

Hourly Weather History & Observations

Time (EET) Temp. Dew Point Humidity Pressure Visibility Wind Dir Wind Speed Gust Speed Precip Events Conditions
12:00 AM 59.0 °F 46.4 °F 63% 30.04 in - WNW 16.1 mph - N/A   Clear
1:00 AM 59.0 °F 46.4 °F 63% 30.04 in - WNW 12.7 mph - N/A   Clear
2:00 AM 60 °F 47 °F 51% 30.04 in 6 mi WNW 11.5 mph - -  
2:00 AM 59.0 °F 46.4 °F 63% 30.04 in - WNW 11.5 mph - N/A   Clear
3:00 AM 59.0 °F 44.6 °F 59% 30.01 in - WNW 10.4 mph - N/A   Clear
4:00 AM 57.2 °F 46.4 °F 67% 30.01 in - WNW 15.0 mph - N/A   Clear
5:00 AM 57.2 °F 44.6 °F 63% 30.01 in - WNW 18.4 mph - N/A   Clear
6:00 AM 57.2 °F 44.6 °F 63% 30.04 in - WNW 19.6 mph - N/A   Clear
7:00 AM 57.2 °F 46.4 °F 67% 30.06 in - WNW 17.3 mph - N/A   Clear
8:00 AM 59 °F 46 °F 53% 30.08 in 6 mi WNW 18.4 mph - -  
8:00 AM 59.0 °F 46.4 °F 63% 30.06 in - WNW 18.4 mph - N/A   Clear
8:09 AM 59.0 °F 46.4 °F 63% 30.06 in - WNW 18.4 mph - N/A   Clear
9:00 AM 64.4 °F 48.2 °F 56% 30.09 in - WNW 18.4 mph - N/A   Clear
10:00 AM 68.0 °F 46.4 °F 46% 30.09 in 3.7 mi NW 21.9 mph - N/A   Unknown
11:00 AM 68.0 °F 44.6 °F 43% 30.06 in 5.0 mi NNW 17.3 mph - N/A   Unknown
12:00 PM 71.6 °F 41.0 °F 33% 30.04 in 5.0 mi North 19.6 mph - N/A   Unknown
1:00 PM 71.6 °F 44.6 °F 38% 30.04 in 5.0 mi North 23.0 mph - N/A   Unknown
2:00 PM 72 °F 45 °F 27% 30.03 in 4 mi North 24.2 mph - -   Blowing Sand
2:00 PM 71.6 °F 44.6 °F 38% 30.01 in 3.7 mi North 24.2 mph - N/A   Unknown
3:00 PM 71.6 °F 42.8 °F 35% 30.01 in 3.7 mi North 24.2 mph - N/A   Unknown
4:00 PM 69.8 °F 42.8 °F 38% 30.04 in - North 21.9 mph - N/A   Clear
5:00 PM 69.8 °F 41.0 °F 35% 30.04 in - North 19.6 mph - N/A   Clear
6:00 PM 66.2 °F 44.6 °F 46% 30.06 in - North 16.1 mph - N/A   Clear
7:00 PM 64.4 °F 42.8 °F 45% 30.06 in - NNW 18.4 mph - N/A   Clear
8:00 PM 64 °F 41 °F 31% 30.09 in 6 mi NNW 16.1 mph - -  
8:00 PM 64.4 °F 42.8 °F 45% 30.06 in - NNW 16.1 mph - N/A   Clear
9:00 PM 62.6 °F 42.8 °F 48% 30.09 in - NW 16.1 mph - N/A   Clear
10:00 PM 60.8 °F 42.8 °F 52% 30.06 in - WNW 18.4 mph - N/A   Clear
11:00 PM 60.8 °F 44.6 °F 55% 30.09 in - WNW 17.3 mph - N/A   Clear